Weather History for Plymouth, NH

Change the Weather History Date:

Saturday, February 16, 2013

  Actual Average (KLCI) Record (KLCI)
Temperature  
Mean Temperature 28 °F -  
Max Temperature 33 °F 32 °F 57 °F (2006)
Min Temperature 23 °F 11 °F -7 °F (2003)
Degree Days  
Heating Degree Days 37    
Moisture  
Dew Point 17 °F    
Average Humidity 62    
Maximum Humidity 89    
Minimum Humidity 41    
Precipitation  
Precipitation 0.00 in - - ()
Sea Level Pressure  
Sea Level Pressure 29.89 in    
Wind  
Wind Speed 5 mph (West)    
Max Wind Speed 13 mph    
Max Gust Speed 17 mph    
Visibility 10 miles    
Events Snow    
Averages and records for this station are not official NWS values.
T = Trace of Precipitation, MM = Missing Value Source: NWS Daily Summary

Daily Weather History Graph

Daily Weather History Graph

Search for Another Location

Airport:

Trip Planner

Search our weather history database for the weather conditions in past years. The results will help you decide how hot, cold, wet, or windy it might be!

Date:

Astronomy

Feb. 16, 2013 Rise Set
Actual Time 6:44 AM EST 5:18 PM EST
Civil Twilight 6:14 AM EST 5:48 PM EST
Nautical Twilight 5:41 AM EST 6:21 PM EST
Astronomical Twilight 5:07 AM EST 6:55 PM EST
Moon 9:40 AM EST (2/16) No Moon Set
Length of Visible Light 11h 33m
Length of Day
10h 34m
Waxing Crescent, 39% of the Moon is Illuminated
Feb 16
Waxing Crescent
Feb 17
First Quarter
Feb 25
Full
Mar 4
Last Quarter
Mar 11
New

Hourly Weather History & Observations

Time (EST) Temp. Windchill Dew Point Humidity Pressure Visibility Wind Dir Wind Speed Gust Speed Precip Events Conditions
12:15 AM 25.7 °F - 22.8 °F 89% 29.92 in 10.0 mi Calm Calm - N/A   Unknown
12:35 AM 25.9 °F - 22.8 °F 88% 29.92 in 10.0 mi Calm Calm - N/A   Unknown
12:55 AM 25.7 °F - 22.8 °F 89% 29.93 in 10.0 mi Calm Calm - N/A   Unknown
1:15 AM 25.5 °F - 22.6 °F 89% 29.93 in 10.0 mi Calm Calm - N/A   Unknown
1:35 AM 26.4 °F 22.4 °F 23.0 °F 87% 29.92 in 10.0 mi West 3.5 mph - N/A   Unknown
1:55 AM 27.0 °F - 23.2 °F 86% 29.93 in 10.0 mi Calm Calm - N/A   Unknown
2:15 AM 27.5 °F - 23.4 °F 84% 29.94 in 10.0 mi Calm Calm - N/A   Unknown
2:35 AM 30.7 °F 26.0 °F 22.5 °F 71% 29.94 in 10.0 mi NW 4.6 mph - N/A   Unknown
2:55 AM 32.0 °F 25.6 °F 22.5 °F 68% 29.94 in 10.0 mi WNW 6.9 mph - N/A   Unknown
3:15 AM 32.0 °F 24.2 °F 23.9 °F 72% 29.93 in 10.0 mi NW 9.2 mph - N/A Snow Light Snow
3:35 AM 32.0 °F 27.5 °F 24.4 °F 74% 29.93 in 10.0 mi WNW 4.6 mph - N/A   Unknown
3:55 AM 32.0 °F 26.4 °F 24.6 °F 74% 29.92 in 10.0 mi West 5.8 mph - N/A   Unknown
4:15 AM 31.6 °F 25.1 °F 24.6 °F 75% 29.92 in 10.0 mi West 6.9 mph - N/A   Unknown
4:35 AM 31.8 °F 24.6 °F 25.3 °F 77% 29.92 in 7.0 mi West 8.1 mph - N/A Snow Light Snow
4:55 AM 31.1 °F 25.4 °F 26.4 °F 83% 29.93 in 5.0 mi West 5.8 mph - N/A Snow Light Snow
5:15 AM 30.7 °F 23.3 °F 27.0 °F 86% 29.93 in 4.0 mi West 8.1 mph - N/A Snow Light Snow
5:35 AM 30.6 °F 24.7 °F 26.8 °F 86% 29.93 in 5.0 mi West 5.8 mph - N/A Snow Light Snow
6:15 AM 30.7 °F 27.3 °F 25.7 °F 82% 29.92 in 10.0 mi WNW 3.5 mph - N/A   Unknown
6:35 AM 30.0 °F - 25.7 °F 84% 29.92 in 10.0 mi Calm Calm - N/A   Unknown
7:15 AM 29.3 °F 25.6 °F 25.5 °F 86% 29.92 in 10.0 mi WNW 3.5 mph - N/A   Unknown
7:35 AM 29.8 °F - 25.7 °F 85% 29.92 in 10.0 mi Calm Calm - N/A   Unknown
7:55 AM 30.0 °F - 25.7 °F 84% 29.92 in 10.0 mi Calm Calm - N/A   Unknown
8:15 AM 30.7 °F 27.3 °F 25.3 °F 80% 29.93 in 10.0 mi WNW 3.5 mph - N/A   Unknown
8:35 AM 31.1 °F 25.4 °F 25.3 °F 79% 29.93 in 10.0 mi WNW 5.8 mph - N/A   Unknown
8:55 AM 31.8 °F 26.2 °F 24.4 °F 74% 29.92 in 10.0 mi WNW 5.8 mph - N/A   Unknown
9:15 AM 32.0 °F 25.6 °F 23.5 °F 71% 29.92 in 10.0 mi WNW 6.9 mph - N/A   Unknown
9:35 AM 32.0 °F 25.6 °F 23.0 °F 69% 29.92 in 10.0 mi West 6.9 mph - N/A   Unknown
9:55 AM 32.9 °F 26.7 °F 23.0 °F 67% 29.91 in 10.0 mi West 6.9 mph - N/A   Unknown
10:15 AM 33.3 °F 27.1 °F 21.7 °F 63% 29.91 in 10.0 mi West 6.9 mph - N/A   Unknown
10:35 AM 32.9 °F 26.7 °F 21.2 °F 62% 29.91 in 10.0 mi West 6.9 mph - N/A   Unknown
1:35 PM 33.4 °F 24.8 °F 16.2 °F 49% 29.88 in 10.0 mi West 11.5 mph 16.1 mph N/A   Unknown
1:55 PM 33.1 °F 24.9 °F 16.3 °F 50% 29.87 in 10.0 mi West 10.4 mph 16.1 mph N/A   Unknown
2:15 PM 33.3 °F 24.1 °F 16.0 °F 49% 29.87 in 10.0 mi WNW 12.7 mph - N/A   Unknown
2:35 PM 33.1 °F 25.5 °F 14.9 °F 47% 29.87 in 10.0 mi West 9.2 mph - N/A   Unknown
2:55 PM 32.9 °F 25.3 °F 15.1 °F 48% 29.87 in 10.0 mi WNW 9.2 mph - N/A   Unknown
3:15 PM 33.1 °F 26.9 °F 15.1 °F 48% 29.87 in 10.0 mi West 6.9 mph - N/A   Unknown
3:35 PM 33.1 °F 26.1 °F 15.3 °F 48% 29.87 in 10.0 mi WNW 8.1 mph - N/A   Unknown
3:55 PM 32.9 °F 27.5 °F 14.7 °F 47% 29.87 in 10.0 mi West 5.8 mph - N/A   Unknown
4:15 PM 32.2 °F 25.8 °F 14.7 °F 49% 29.86 in 10.0 mi West 6.9 mph - N/A   Unknown
4:35 PM 32.0 °F 25.6 °F 14.5 °F 49% 29.86 in 10.0 mi West 6.9 mph - N/A   Unknown
4:55 PM 31.8 °F 24.6 °F 14.0 °F 48% 29.85 in 10.0 mi WNW 8.1 mph - N/A   Unknown
5:15 PM 30.9 °F 24.3 °F 13.5 °F 48% 29.86 in 10.0 mi WNW 6.9 mph - N/A   Unknown
5:35 PM 30.2 °F 24.3 °F 13.3 °F 49% 29.86 in 10.0 mi WNW 5.8 mph - N/A   Unknown
5:55 PM 30.2 °F 26.7 °F 12.7 °F 48% 29.87 in 10.0 mi WNW 3.5 mph 10.4 mph N/A   Unknown
6:15 PM 29.8 °F 24.9 °F 11.8 °F 47% 29.86 in 10.0 mi WNW 4.6 mph - N/A   Unknown
6:35 PM 29.3 °F 22.3 °F 11.5 °F 47% 29.87 in 10.0 mi WNW 6.9 mph - N/A   Unknown
6:55 PM 28.9 °F 20.4 °F 10.0 °F 45% 29.87 in 10.0 mi West 9.2 mph - N/A   Unknown
7:15 PM 28.2 °F 19.5 °F 9.5 °F 45% 29.86 in 10.0 mi West 9.2 mph - N/A   Unknown
7:35 PM 28.0 °F 18.1 °F 9.1 °F 45% 29.86 in 10.0 mi West 11.5 mph 16.1 mph N/A   Unknown
7:55 PM 27.5 °F 18.0 °F 8.8 °F 45% 29.86 in 10.0 mi West 10.4 mph - N/A   Unknown
8:15 PM 27.1 °F 18.2 °F 8.2 °F 45% 29.86 in 10.0 mi West 9.2 mph - N/A   Unknown
8:35 PM 26.6 °F 18.2 °F 7.9 °F 45% 29.86 in 10.0 mi West 8.1 mph - N/A   Unknown
8:55 PM 26.1 °F 17.6 °F 7.3 °F 45% 29.86 in 10.0 mi West 8.1 mph - N/A   Unknown
9:15 PM 25.7 °F 16.4 °F 6.8 °F 45% 29.86 in 10.0 mi West 9.2 mph - N/A   Unknown
9:35 PM 25.3 °F 16.0 °F 5.7 °F 43% 29.84 in 10.0 mi West 9.2 mph - N/A   Unknown
9:55 PM 24.8 °F 16.1 °F 5.2 °F 43% 29.84 in 10.0 mi West 8.1 mph - N/A   Unknown
10:15 PM 24.6 °F 15.8 °F 4.8 °F 43% 29.83 in 10.0 mi West 8.1 mph - N/A   Unknown
10:35 PM 24.4 °F 13.5 °F 4.3 °F 42% 29.81 in 10.0 mi West 11.5 mph - N/A   Unknown
10:55 PM 24.3 °F 15.4 °F 3.6 °F 41% 29.82 in 10.0 mi West 8.1 mph - N/A   Unknown
11:15 PM 23.9 °F 13.5 °F 3.6 °F 42% 29.81 in 10.0 mi West 10.4 mph 17.3 mph N/A   Unknown
11:35 PM 23.7 °F 14.0 °F 3.6 °F 42% 29.79 in 10.0 mi West 9.2 mph - N/A   Unknown
11:55 PM 23.7 °F 14.7 °F 3.6 °F 42% 29.77 in 10.0 mi West 8.1 mph - N/A   Unknown